Location: Unspecified
(48.8656°N, 0.0000°E)
Time: 02:04:40
(UTC+00:00)

Vanguard 1 Rocket - Pass Details

Date: 28 June 2019
Orbit: 652 x 4224 km, 34.3° (Epoch: 16 August)

Event Time Altitude Azimuth Distance (km) Brightness Sun altitude
Rises 20:05:13 0° 270° (W) 6,780 12.8 -0.5°
Reaches altitude 10° 20:11:21 10° 260° (W) 5,090 11.9 -1.3°
Maximum altitude 20:21:09 26° 212° (SSW) 2,828 9.9 -2.5°
Drops below altitude 10° 20:27:19 10° 159° (SSE) 3,080 9.6 -3.3°
Enters shadow 20:29:17 - 149° (SSE) 3,528 9.8 -3.6°
Sets 20:29:59 0° 145° (SE) 3,716 - -3.6°
